Tracking 29933 objects as of 2-Dec-2024
HD Live streaming from Space Station
objects crossing your sky now

OBJECT K

Track OBJECT K now!
10-day predictions


NORAD ID: 55257
Int'l Code: 2023-007K
Perigee: 349.1 km
Apogee: 357.4 km
Inclination: 97.3 °
Period: 91.5 minutes
Semi major axis: 6724 km
RCS: Unknown
Launch date: January 15, 2023
Source: People's Republic of China (PRC)
Launch site: Taiyaun Space Center, China (TSC)
Your satellite tracking list
Your tracking list is empty




NASA's NSSDC Master Catalog

Two Line Element Set (TLE):
1 55257U 23007K   24337.54091793  .00172205  00000-0  11659-2 0  9994
2 55257  97.3033  58.2551 0006202 294.4643  65.5974 15.74490121105746
Source of the keplerian elements: AFSPC